Temperature
16 16 16 16 16 15 15 15 15 15 15 14 14 14 14 14 14 14 13 13 13 13 13 13 13 13 13 13 13 13 13 13 13 13 13 13 13 13 13 13 13 13 13
16 16 16 16 16 15 15 15 15 15 14 14 14 14 14 14 13 13 13 13 13 13 13 13 13 13 13 13 13 13 13 13 12 12 12 13 13 13 13 13 13 13 13
16 16 16 16 15 15 15 15 15 15 14 14 14 14 14 13 13 13 13 13 13 13 13 13 13 13 13 12 12 12 12 12 12 12 12 12 12 12 12 12 12 12 12
16 16 16 16 15 15 15 15 14 14 14 14 14 14 13 13 13 13 13 13 13 13 13 12 12 12 12 12 12 12 12 12 12 12 12 12 12 12 12 12 12 12 12
16 16 16 15 15 15 15 14 14 14 14 14 14 13 13 13 13 13 13 13 13 13 12 12 12 12 12 12 12 12 11 11 11 11 11 11 11 11 11 11 11 11 12
16 16 15 15 15 15 14 14 14 14 14 13 13 13 13 13 13 13 12 12 12 12 12 12 12 12 12 11 11 11 11 11 11 11 11 10 10 10 10 10 10 10 11
16 16 15 15 15 14 14 14 14 14 13 13 13 13 13 13 12 12 12 12 12 12 12 12 11 11 11 11 11 11 11 11 10 10 10 10 10 10 10 10 10 10 10
16 15 15 15 15 14 14 14 13 13 13 13 13 12 12 12 12 12 12 12 11 11 11 11 11 11 11 11 11 11 11 10 10 10 10 9 9 9 9 9 9 9 9
16 15 15 15 14 14 14 13 13 13 13 13 12 12 12 12 11 11 11 11 11 11 11 11 10 10 10 10 10 10 10 10 10 9 9 9 9 9 9 9 9 9 9
16 15 15 15 14 14 14 13 13 13 13 12 12 12 12 11 11 11 11 11 11 11 10 10 10 10 10 10 10 10 10 9 9 9 9 9 9 8 8 8 8 8 8
16 15 15 14 14 14 13 13 13 12 12 12 12 11 11 11 11 11 10 10 10 10 10 10 10 9 9 9 9 9 9 9 9 9 8 8 8 8 8 8 7 7 7
15 15 15 14 14 13 13 13 12 12 12 12 11 11 11 11 10 10 10 10 10 10 9 9 9 9 9 9 9 8 8 8 8 8 8 8 8 8 7 7 7 7 7
15 15 14 14 13 13 13 12 12 12 11 11 11 11 10 10 10 10 10 9 9 9 9 9 8 8 8 8 8 8 8 7 7 7 7 7 7 7 7 6 6 6 6
15 14 14 13 13 13 12 12 12 11 11 11 11 10 10 10 10 9 9 9 9 9 8 8 8 8 8 7 7 7 7 7 6 6 6 6 6 6 6 6 6 6 6
14 14 13 13 13 12 12 12 11 11 11 10 10 10 10 10 9 9 9 9 8 8 8 8 7 7 7 7 7 6 6 6 6 6 6 5 5 5 5 5 5 5 5
14 13 13 12 12 12 12 11 11 10 10 10 10 9 9 9 9 8 8 8 8 7 7 7 7 6 6 6 6 6 5 5 5 5 5 5 5 5 5 5 4 4 4
13 13 13 12 12 11 11 11 10 10 10 9 9 9 9 8 8 8 8 7 7 7 7 6 6 6 6 5 5 5 5 5 5 5 4 4 4 4 4 4 4 4 4
13 12 12 12 11 11 10 10 10 10 9 9 9 8 8 8 8 7 7 7 7 6 6 6 5 5 5 5 5 5 4 4 4 4 4 4 4 4 4 3 3 3 3
12 12 11 11 11 10 10 9 9 9 9 8 8 8 8 7 7 7 7 6 6 6 6 5 5 5 5 5 4 4 4 4 4 4 3 3 3 3 3 3 3 3 3
12 11 11 10 10 10 9 9 9 8 8 8 8 7 7 7 7 6 6 6 6 5 5 5 5 5 4 4 4 4 4 3 3 3 3 3 3 3 2 2 2 2 2
11 11 10 10 9 9 9 8 8 8 8 7 7 7 6 6 6 6 5 5 5 5 5 5 4 4 4 4 3 3 3 3 3 2 2 2 2 2 2 2 2 1 1
11 10 10 9 9 9 8 8 8 7 7 7 6 6 6 6 5 5 5 5 5 4 4 4 4 4 3 3 3 3 2 2 2 2 2 2 1 1 1 1 1 1 1
10 10 9 9 8 8 8 7 7 7 7 6 6 6 5 5 5 5 4 4 4 4 4 3 3 3 3 2 2 2 2 1 1 1 1 1 1 1 1 1 0 0 0
9 9 9 8 8 8 7 7 7 6 6 6 5 5 5 5 4 4 4 4 3 3 3 3 3 2 2 2 2 1 1 1 1 1 0 0 0 0 0 0 0 0 0
9 9 8 8 7 7 7 6 6 6 5 5 5 5 4 4 4 4 3 3 3 3 2 2 2 2 2 2 1 1 1 0 0 0 0 0 0 -0 -0 -0 -0 -0 -0
8 8 8 7 7 6 6 6 6 5 5 5 4 4 4 3 3 3 3 2 2 2 2 2 2 1 1 1 1 0 0 0 0 -0 -0 -0 -0 -0 -1 -1 -1 -1 -1
Wind_Speed
6 5 6 4 4 4 4 3 3 3 3 3 3 3 3 4 3 4 4 4 5 5 4 4 3 3 3 3 3 3 2 2 0 3 2 3 3 4 6 7 7 7 8
6 6 5 5 4 4 4 3 3 3 3 3 3 3 3 4 4 4 4 4 4 4 4 4 3 3 4 3 3 3 2 1 1 1 3 3 3 4 4 4 6 7 8
6 7 5 5 5 4 3 3 3 4 3 3 4 4 3 3 3 3 3 3 3 3 2 3 2 2 3 2 3 3 2 2 1 1 2 2 2 4 4 4 5 5 8
7 7 6 5 4 4 3 3 3 3 3 3 3 3 2 3 3 3 3 3 3 3 3 3 2 2 1 2 2 2 2 3 2 2 2 3 3 3 3 3 5 4 5
7 6 5 4 4 4 4 3 3 4 3 3 3 3 3 3 3 3 3 4 3 4 4 4 4 4 5 4 3 2 2 2 2 2 2 3 3 4 4 3 4 5 4
7 6 5 5 4 4 4 4 4 3 3 3 3 3 4 3 5 6 5 4 3 3 3 4 4 5 6 7 7 6 4 2 1 1 2 2 4 4 3 4 3 4 4
7 6 5 5 5 4 4 4 3 3 3 3 3 3 3 3 5 7 7 4 3 3 3 3 4 6 6 4 6 8 7 7 4 1 2 3 4 4 3 4 4 3 5
7 6 5 5 5 4 4 3 2 2 2 2 1 2 2 2 4 6 6 4 4 3 2 2 2 4 5 4 4 5 5 5 5 3 2 4 4 4 3 3 4 4 5
7 6 6 6 6 5 4 3 2 2 2 1 1 2 2 2 4 5 5 3 3 3 3 3 3 3 7 8 5 4 5 6 8 8 7 7 8 8 5 2 3 3 5
8 7 6 6 6 6 5 4 2 2 2 2 2 1 1 0 2 4 4 3 2 2 3 3 5 6 8 8 4 3 5 6 6 7 7 7 7 7 7 2 1 2 3
7 6 6 6 6 5 4 3 3 3 3 2 2 1 1 0 1 3 3 2 1 1 2 3 4 8 9 9 6 3 5 6 4 4 4 4 4 4 4 4 2 2 3
7 6 5 5 4 4 5 3 3 4 3 2 2 1 1 2 1 1 2 2 1 0 1 2 4 8 9 9 7 7 9 7 3 3 3 4 4 5 5 5 5 5 5
7 6 5 4 4 4 5 4 3 3 3 2 1 0 1 2 2 3 2 3 2 1 2 5 7 8 8 6 8 10 7 3 3 3 4 4 4 5 4 4 5 6 6
8 6 5 5 4 3 3 3 3 3 2 2 2 1 1 1 2 2 2 2 2 3 3 5 7 8 5 6 7 6 4 3 3 3 4 5 4 4 4 4 4 4 4
7 6 5 4 4 4 3 2 3 2 3 3 3 3 2 2 4 3 1 1 1 2 2 2 3 4 4 4 4 5 4 4 4 4 4 4 5 4 4 4 3 3 4
7 6 5 4 4 4 3 2 3 1 1 2 2 2 3 4 3 3 3 3 4 3 2 2 3 4 4 5 5 5 4 4 4 4 4 4 5 6 6 5 4 4 5
7 6 5 4 4 4 4 3 1 3 3 2 2 2 3 3 3 3 3 3 4 3 1 3 4 4 5 5 5 5 5 5 5 4 5 5 6 6 6 6 6 6 6
6 6 6 5 5 4 4 3 3 2 1 2 3 4 4 3 3 4 3 2 3 3 2 4 4 5 5 5 5 5 5 5 5 5 5 6 6 6 6 6 6 7 7
6 4 4 4 4 4 3 3 2 2 2 1 2 3 4 3 3 4 2 1 3 4 4 4 5 5 5 5 5 5 5 6 6 6 6 6 6 6 6 7 7 9 8
5 6 6 4 3 3 3 2 2 2 2 2 2 3 2 1 2 3 2 2 3 4 4 5 5 5 5 5 5 5 5 6 6 6 6 6 6 6 7 8 8 8 7
5 5 6 4 3 3 3 3 3 2 2 2 3 4 3 2 3 3 3 3 3 4 5 5 5 5 5 5 5 5 6 6 6 6 6 6 6 6 7 7 8 8 8
5 4 4 4 3 3 3 3 2 2 2 2 3 3 3 2 2 3 3 4 4 4 4 4 5 4 4 5 5 5 6 6 6 6 7 7 7 7 7 7 8 8 8
5 5 4 3 3 3 2 2 2 2 2 2 3 3 2 2 3 3 4 4 4 4 5 5 5 5 6 7 7 6 6 7 7 7 7 8 8 8 8 9 10 10 10
5 5 4 3 3 3 2 2 2 2 2 2 3 3 3 3 3 4 4 4 4 5 6 6 6 7 9 9 9 9 10 11 11 10 10 9 9 9 9 9 9 10 10
4 4 4 3 3 3 2 2 2 2 2 2 2 2 3 3 3 4 4 3 4 5 6 7 7 8 9 10 11 12 13 15 15 14 11 8 9 10 10 10 10 10 11
4 4 3 3 3 2 2 2 2 2 2 2 2 2 3 3 3 4 3 3 4 5 6 7 9 10 11 11 13 15 16 17 17 17 13 8 9 9 10 10 11 11 12
Wind_Direction
136 127 120 118 117 110 104 105 107 99 90 91 87 75 62 48 46 55 49 48 50 37 36 48 30 29 37 27 33 39 46 89 126 302 306 322 347 346 348 343 332 324 320
141 126 120 114 109 103 102 98 102 104 93 92 85 78 65 55 53 60 55 51 54 42 30 38 19 34 35 25 31 27 22 40 99 324 318 332 336 336 334 337 344 340 330
131 125 119 116 116 118 114 106 104 103 90 79 77 76 68 62 60 62 72 63 54 45 38 41 13 38 23 14 23 18 6 22 41 22 317 319 322 338 341 335 337 336 335
131 129 131 137 137 133 120 109 102 101 94 78 70 73 71 66 64 60 69 64 48 37 38 43 35 48 24 12 21 10 17 25 19 11 336 326 318 320 341 333 332 328 323
136 135 145 144 132 123 115 107 96 92 91 86 76 59 52 64 66 74 67 69 55 38 30 29 35 44 40 34 35 12 33 29 12 5 340 337 329 334 328 314 318 316 311
145 149 148 139 129 127 127 116 100 92 85 81 76 74 63 57 65 72 77 63 56 51 33 19 25 31 22 21 26 26 27 17 345 337 317 312 299 299 307 319 319 333 316
152 153 152 149 142 142 135 117 112 108 94 84 76 84 74 53 63 67 69 72 61 53 44 31 26 16 15 10 9 12 10 6 352 278 274 281 283 284 301 311 305 299 282
157 162 161 154 150 141 128 129 131 117 113 107 95 101 89 50 62 65 66 66 58 41 36 47 36 3 4 7 8 3 350 339 330 327 269 271 280 278 260 271 279 297 292
167 174 170 160 152 145 146 158 159 132 119 118 119 119 103 29 46 59 65 65 52 27 16 22 22 4 356 6 14 354 341 331 337 338 334 330 328 333 336 346 340 337 314
176 175 167 158 154 158 166 165 149 138 141 124 94 104 122 66 25 53 68 78 56 14 355 350 351 352 348 355 1 347 332 315 322 332 338 338 339 340 343 339 284 303 302
167 156 152 155 158 160 155 147 138 131 117 104 91 58 67 25 6 47 67 85 109 12 339 330 327 342 346 345 344 328 310 315 317 323 326 327 327 326 324 321 279 240 268
144 142 148 151 152 143 134 132 130 130 121 111 89 38 359 334 343 359 27 30 43 109 291 298 309 333 341 341 338 329 332 339 338 334 328 318 311 306 300 301 304 290 267
135 138 140 136 128 129 136 137 125 125 135 146 140 178 304 325 327 340 357 8 6 351 291 313 327 336 339 338 337 338 340 339 330 320 307 295 285 283 291 301 305 307 302
140 141 137 132 127 123 128 138 140 153 159 164 175 204 249 300 306 311 320 329 341 341 331 329 333 336 335 326 330 332 328 311 306 288 287 287 293 300 299 296 294 300 302
142 144 143 142 142 134 126 140 160 190 187 180 197 196 202 255 267 259 261 281 276 279 323 341 340 334 330 324 320 315 310 314 310 298 294 298 300 299 296 296 287 287 285
146 150 150 146 140 134 125 72 26 57 208 189 193 195 233 247 270 277 286 299 310 320 352 323 305 300 297 297 299 302 300 296 290 287 290 291 293 294 294 294 286 281 283
154 157 154 152 149 150 148 147 136 352 3 346 290 261 255 269 278 286 291 303 315 330 321 287 287 288 288 290 289 288 289 288 285 284 286 287 289 291 293 293 292 290 287
149 154 154 160 161 161 164 168 170 173 265 313 311 298 286 279 287 289 289 325 319 312 270 271 278 281 282 285 286 286 286 290 288 284 282 283 283 285 288 287 284 281 283
148 155 156 155 157 158 159 160 171 182 201 257 307 316 307 303 307 304 301 268 266 277 276 273 273 275 277 279 280 281 282 285 286 285 286 285 283 282 283 282 281 281 282
157 157 152 150 149 150 155 166 181 192 209 229 252 263 288 338 316 306 298 275 267 270 273 275 277 278 279 280 281 282 286 287 287 285 285 286 285 283 282 285 286 287 285
154 160 151 145 157 169 175 188 197 198 213 234 253 256 250 238 255 268 276 275 268 271 274 275 277 281 280 280 279 281 285 287 286 285 286 287 288 287 285 284 285 284 285
152 155 160 163 167 173 183 189 191 203 220 234 263 279 276 262 256 267 274 277 275 268 269 272 279 281 278 278 280 283 288 289 289 289 289 290 288 286 286 286 288 288 288
152 155 158 163 167 174 175 184 191 205 228 246 255 266 265 261 264 269 274 279 279 283 287 286 281 285 292 291 288 281 284 289 290 291 292 291 289 287 285 284 284 287 286
155 158 162 167 166 171 183 199 211 222 234 248 256 256 259 263 268 273 276 276 285 291 295 293 289 287 291 297 301 297 293 294 298 297 290 288 288 288 286 285 284 284 284
151 156 162 169 174 182 192 205 217 226 238 250 258 265 273 276 280 284 284 286 291 294 295 300 300 299 298 298 299 299 298 299 300 302 300 292 287 286 287 285 284 285 285
156 161 165 168 174 182 193 211 226 231 239 253 260 264 269 272 278 287 292 295 299 298 298 303 301 301 300 301 299 299 301 302 302 302 300 295 289 288 290 289 288 287 287
Height
1560 1561 1562 1563 1563 1564 1564 1564 1564 1564 1564 1563 1563 1563 1562 1562 1561 1561 1560 1560 1559 1558 1558 1557 1556 1555 1554 1553 1552 1551 1550 1550 1548 1547 1547 1545 1544 1542 1541 1540 1538 1537 1535
1559 1561 1562 1562 1563 1563 1564 1564 1564 1564 1564 1564 1563 1563 1562 1562 1561 1561 1560 1560 1559 1558 1558 1557 1556 1555 1554 1553 1552 1551 1550 1549 1548 1546 1545 1544 1543 1541 1540 1538 1537 1535 1534
1558 1560 1561 1562 1562 1563 1563 1564 1564 1564 1564 1563 1563 1563 1562 1562 1561 1561 1560 1559 1559 1558 1557 1556 1556 1555 1553 1553 1552 1550 1549 1548 1547 1545 1543 1542 1541 1539 1538 1536 1535 1533 1532
1558 1559 1560 1561 1561 1562 1563 1563 1563 1563 1563 1563 1563 1563 1562 1562 1561 1561 1560 1559 1558 1557 1557 1556 1555 1554 1553 1552 1551 1549 1548 1547 1545 1544 1542 1540 1539 1537 1535 1533 1532 1530 1529
1556 1558 1559 1560 1561 1562 1562 1563 1563 1563 1563 1563 1563 1562 1562 1561 1561 1560 1559 1559 1558 1557 1556 1555 1554 1553 1552 1551 1549 1548 1547 1545 1543 1542 1540 1538 1536 1534 1533 1531 1529 1527 1526
1555 1556 1558 1559 1560 1560 1561 1562 1562 1562 1562 1562 1562 1562 1561 1561 1560 1559 1559 1558 1557 1556 1555 1554 1553 1552 1551 1549 1548 1546 1545 1543 1541 1540 1538 1536 1534 1533 1531 1529 1527 1524 1522
1554 1555 1556 1558 1558 1559 1560 1561 1561 1561 1562 1562 1561 1561 1561 1560 1559 1559 1558 1557 1556 1555 1554 1553 1552 1550 1549 1548 1546 1545 1543 1541 1540 1538 1536 1534 1532 1530 1528 1526 1524 1522 1520
1552 1554 1555 1556 1557 1558 1559 1559 1560 1560 1561 1561 1560 1560 1560 1559 1559 1558 1557 1556 1555 1554 1553 1551 1550 1549 1547 1546 1544 1542 1540 1539 1537 1536 1534 1532 1530 1528 1526 1524 1522 1519 1517
1550 1552 1553 1554 1555 1556 1557 1558 1558 1559 1559 1559 1559 1559 1559 1558 1558 1557 1556 1555 1554 1552 1551 1550 1548 1547 1545 1543 1541 1539 1538 1536 1535 1533 1531 1529 1528 1526 1523 1521 1518 1515 1512
1548 1550 1552 1553 1554 1555 1555 1556 1557 1558 1558 1558 1558 1558 1557 1557 1556 1555 1555 1553 1552 1551 1550 1548 1546 1544 1543 1540 1539 1537 1535 1533 1531 1530 1528 1526 1524 1522 1520 1518 1515 1513 1510
1546 1548 1550 1551 1552 1553 1554 1555 1555 1556 1556 1556 1556 1556 1556 1555 1555 1554 1553 1552 1550 1549 1547 1545 1544 1542 1540 1538 1536 1534 1532 1530 1528 1526 1524 1522 1520 1518 1516 1515 1513 1510 1507
1545 1546 1548 1549 1550 1551 1552 1553 1553 1554 1554 1554 1554 1554 1554 1553 1552 1551 1551 1549 1548 1546 1545 1543 1541 1539 1537 1535 1533 1531 1529 1527 1525 1522 1520 1518 1516 1514 1512 1510 1508 1506 1504
1543 1544 1546 1547 1548 1549 1550 1551 1551 1552 1552 1552 1552 1551 1551 1551 1550 1549 1548 1547 1545 1544 1542 1540 1538 1536 1534 1532 1530 1527 1525 1523 1521 1518 1516 1514 1512 1510 1508 1505 1503 1501 1499
1540 1542 1544 1545 1546 1547 1548 1549 1549 1549 1549 1549 1549 1549 1548 1548 1547 1546 1545 1544 1542 1541 1539 1537 1535 1533 1531 1529 1526 1524 1522 1520 1517 1515 1512 1510 1508 1505 1503 1500 1497 1495 1492
1538 1540 1542 1543 1544 1545 1546 1546 1547 1547 1547 1547 1547 1546 1546 1545 1544 1543 1542 1541 1539 1537 1535 1533 1531 1529 1527 1524 1522 1520 1518 1515 1513 1511 1508 1505 1502 1500 1497 1495 1492 1489 1486
1536 1538 1539 1540 1541 1542 1543 1544 1544 1545 1545 1545 1544 1544 1543 1543 1541 1540 1539 1538 1536 1534 1532 1529 1527 1525 1522 1520 1517 1515 1513 1511 1508 1506 1503 1500 1497 1494 1491 1489 1487 1484 1480
1533 1535 1536 1537 1539 1540 1540 1541 1541 1542 1542 1542 1541 1541 1540 1539 1538 1537 1535 1534 1532 1530 1528 1525 1523 1521 1518 1516 1513 1511 1508 1506 1503 1501 1498 1495 1492 1489 1486 1483 1480 1477 1474
1531 1533 1534 1535 1536 1537 1537 1538 1538 1538 1538 1538 1538 1538 1537 1536 1535 1533 1532 1530 1528 1526 1524 1521 1519 1517 1514 1511 1509 1506 1503 1501 1498 1495 1492 1489 1486 1483 1480 1477 1474 1471 1468
1529 1530 1531 1532 1533 1534 1535 1535 1535 1535 1535 1535 1535 1534 1534 1532 1531 1530 1528 1526 1523 1521 1519 1517 1515 1512 1509 1506 1504 1501 1498 1495 1492 1489 1486 1483 1480 1477 1474 1471 1467 1464 1461
1526 1527 1528 1529 1530 1531 1532 1532 1532 1532 1532 1532 1531 1530 1530 1528 1527 1525 1523 1522 1519 1517 1515 1512 1509 1507 1504 1501 1498 1495 1492 1489 1486 1483 1480 1477 1474 1471 1467 1464 1461 1458 1454
1523 1524 1525 1526 1527 1528 1528 1529 1529 1529 1529 1528 1528 1527 1526 1524 1522 1521 1519 1517 1515 1512 1510 1507 1504 1501 1498 1495 1492 1489 1486 1483 1480 1476 1473 1470 1467 1464 1461 1458 1454 1451 1447
1520 1521 1522 1523 1524 1525 1525 1525 1525 1525 1525 1524 1524 1523 1522 1520 1518 1516 1514 1512 1510 1507 1505 1502 1499 1496 1493 1490 1486 1483 1479 1476 1473 1470 1467 1463 1460 1457 1454 1450 1447 1444 1441
1517 1518 1519 1520 1520 1521 1521 1521 1522 1521 1521 1521 1520 1519 1517 1515 1514 1511 1509 1507 1505 1502 1499 1496 1493 1490 1487 1483 1480 1477 1473 1470 1467 1463 1460 1456 1453 1450 1446 1443 1440 1437 1434
1513 1514 1515 1516 1516 1517 1517 1517 1517 1517 1517 1516 1515 1514 1513 1511 1509 1507 1504 1502 1499 1496 1493 1490 1487 1484 1480 1477 1474 1471 1467 1464 1460 1457 1453 1449 1446 1442 1439 1436 1433 1430 1427
1510 1511 1512 1512 1513 1513 1513 1514 1513 1513 1513 1512 1511 1509 1508 1506 1504 1501 1499 1496 1493 1490 1487 1484 1481 1478 1474 1470 1467 1464 1460 1457 1454 1450 1446 1442 1438 1435 1432 1428 1425 1422 1419
1507 1508 1508 1509 1509 1509 1510 1510 1509 1509 1508 1507 1506 1505 1503 1501 1499 1496 1493 1491 1488 1485 1481 1478 1475 1471 1468 1464 1460 1457 1453 1450 1446 1443 1439 1435 1431 1428 1425 1421 1418 1415 1412